Back to catalog

OPS 8314 (2)

AliveMilitaryPO
NORAD 6822·PAYLOAD·🇺🇸 United States

Launched Oct 10, 1972 from Vandenberg Space Force Base

Loading…

Next Passes (next 24 hours)

TLE

FreshSource: Space-Track

Epoch: Sep 14, 2026, 11:08 UTC

1 06822U 72079C   26257.46441356 -.00000024  00000-0 -67695-4 0  9993
2 06822  95.6362  69.6570 0028542 255.0973 118.5092 12.55632515470918

Track OPS 8314 (2) in real time with AllMySat

Download on the App Store